Wind_Speed
27 25 22 19 18 17 15 15 13 11 10 10 11 11 9 7 6 6 5 5 6 7 7 6 6 9 13 14 12 12 11 10 8 7 9 11 12 14 16 17 17 17 16 15 15 16 17 18 18 16 16 17 17 15 14 13 11 10 9 15 21 21 17 12 8 8 10 8 7 5 3 4 3 3 3 3 3 4 5 6 5 4 2 2 5
27 26 23 19 18 17 15 15 14 12 11 11 11 10 9 7 6 5 5 7 8 8 8 8 8 10 12 12 11 11 11 10 10 10 10 10 11 13 16 17 17 16 15 15 15 16 18 20 20 17 16 16 16 14 12 12 13 12 8 11 20 21 15 10 8 8 9 8 8 6 5 5 3 2 3 2 2 2 2 3 3 2 1 2 5
25 24 22 19 18 17 16 15 14 13 12 11 11 10 8 6 5 5 6 8 9 8 8 9 10 11 12 11 10 10 10 10 11 12 11 12 13 16 17 17 16 15 15 15 16 16 18 20 20 18 16 16 15 14 12 11 12 13 10 11 16 18 14 10 8 8 9 8 8 8 6 5 5 4 3 2 1 4 3 2 2 3 4 4 7
24 23 21 20 19 18 17 16 15 14 13 11 11 10 8 5 5 6 8 9 9 10 9 10 10 10 10 11 11 10 10 12 13 13 14 15 17 18 18 16 15 14 15 15 15 15 17 18 19 18 17 16 16 16 14 12 11 11 11 11 13 13 12 10 8 8 8 7 7 8 7 5 4 4 3 4 4 6 7 5 5 6 6 7 8
26 25 23 23 22 21 18 17 16 15 13 12 12 10 7 6 6 8 10 10 11 11 10 9 9 8 7 9 11 12 11 13 15 16 16 17 17 18 18 17 16 16 16 15 14 14 14 16 17 18 18 18 17 17 15 13 11 12 12 11 10 9 9 10 9 8 8 7 7 8 9 7 6 5 5 6 7 7 8 8 8 8 8 9 10
23 22 21 21 22 20 18 17 17 16 13 12 13 10 7 6 7 9 11 12 12 12 11 9 7 6 5 6 9 11 10 12 16 16 16 17 16 16 17 17 15 15 16 15 15 14 13 14 15 17 18 17 16 16 16 14 13 14 14 13 11 9 10 10 11 10 9 8 8 9 10 9 7 7 7 8 9 9 9 9 9 9 10 11 12
19 19 18 19 19 18 17 14 13 12 11 12 12 9 6 7 8 10 12 13 12 11 10 9 8 7 6 5 6 7 7 10 15 16 16 16 15 15 16 17 16 15 15 15 15 15 15 14 15 16 17 17 17 17 17 17 16 16 16 15 13 12 12 12 12 12 11 9 9 10 10 9 8 8 9 10 10 10 10 11 11 11 11 13 14
19 18 18 19 19 18 16 12 9 9 10 12 11 7 7 8 9 11 12 13 11 9 7 8 9 8 7 6 6 5 5 7 13 16 17 16 16 16 16 17 17 17 16 16 16 16 16 16 16 16 16 17 19 19 19 19 18 19 19 18 17 16 15 14 14 13 12 11 11 11 11 10 9 10 11 11 12 12 12 12 12 13 14 15 16
21 22 20 19 20 18 15 13 11 11 10 10 9 7 7 9 11 12 13 12 11 9 6 6 7 8 9 8 8 7 6 6 8 13 15 17 17 18 18 18 18 18 18 18 17 17 16 16 16 15 15 16 18 20 21 21 20 20 21 21 19 18 18 17 16 15 14 13 13 13 13 13 13 13 14 14 14 15 15 14 15 16 17 17 18
20 22 19 18 18 16 15 14 14 13 11 10 9 8 7 8 10 12 12 11 9 9 9 7 5 7 9 9 10 10 8 7 7 8 11 14 16 18 19 19 19 20 20 20 20 18 17 17 16 15 14 15 16 18 19 20 21 21 21 22 21 20 19 18 18 18 18 17 16 16 16 16 16 16 16 16 17 17 18 18 18 19 19 19 19
19 19 17 17 17 16 15 15 16 15 15 14 12 10 9 8 9 10 12 12 9 8 11 11 7 7 9 9 9 11 10 9 9 9 9 11 13 16 18 19 20 21 22 22 22 21 20 19 18 17 16 15 15 15 16 18 20 21 21 22 22 21 21 20 20 20 20 20 20 19 19 19 19 18 17 17 17 17 18 19 20 21 21 20 20
22 21 19 17 16 14 13 13 13 14 15 14 13 12 11 11 10 10 11 12 9 8 11 13 11 10 11 11 11 12 13 12 13 14 13 13 13 14 15 17 19 21 23 24 24 23 23 22 21 20 19 19 18 17 17 18 19 20 21 21 22 23 23 22 22 22 22 21 21 21 20 20 20 19 18 18 17 16 16 18 19 20 20 20 19
23 23 21 19 17 16 15 13 13 13 12 12 12 12 11 11 12 12 12 12 11 9 11 13 14 13 14 14 14 15 15 15 16 17 18 19 18 17 17 18 19 20 21 23 24 24 24 24 24 23 23 22 22 21 21 21 21 21 21 21 22 24 24 25 25 24 24 23 22 22 21 21 21 20 19 18 17 17 17 17 18 19 19 19 20
25 24 24 22 20 19 17 16 15 13 11 11 11 10 9 8 9 10 10 11 11 12 12 14 16 17 18 18 18 19 19 19 18 18 18 20 21 22 22 22 22 22 22 22 23 24 25 25 26 27 26 26 26 25 25 25 25 24 23 23 24 25 26 26 26 26 25 24 24 23 22 22 21 20 18 18 18 18 18 18 19 20 20 20 21
23 23 22 21 19 18 17 16 15 14 13 12 11 10 9 8 8 8 8 9 10 11 12 13 14 16 18 20 22 23 23 22 22 22 21 21 21 23 25 26 26 26 26 26 26 26 27 27 28 28 28 29 30 29 29 28 27 27 27 27 27 27 28 28 27 25 25 24 24 23 22 22 21 21 20 19 19 19 20 20 20 21 20 20 21
19 18 18 16 15 14 14 14 13 13 12 12 11 10 9 9 9 10 9 9 9 10 10 10 10 11 12 14 17 20 22 23 24 24 25 24 23 23 26 28 30 30 30 30 30 30 30 31 32 31 30 31 31 30 30 29 27 28 29 29 27 28 28 28 26 23 23 24 23 23 22 23 22 22 21 20 20 21 21 21 20 20 19 20 20
11 11 11 10 8 8 9 9 8 7 8 8 8 9 8 8 9 10 10 10 10 10 10 10 10 10 10 10 12 14 16 18 21 23 25 26 26 27 28 29 31 32 33 33 33 33 33 34 36 35 32 30 30 31 32 30 28 29 30 28 26 26 26 25 24 22 21 22 23 23 22 21 20 20 20 20 20 20 20 20 19 19 19 19 19
4 3 4 3 2 2 4 5 4 3 4 5 5 6 7 7 8 9 9 10 11 10 11 11 11 11 12 12 13 14 15 16 17 19 22 24 27 29 30 30 30 30 32 33 34 35 35 36 38 36 33 32 32 32 33 32 31 31 29 26 25 26 25 24 24 23 22 21 22 21 19 17 17 17 18 18 18 19 19 18 18 19 19 19 18
3 1 1 2 3 3 3 4 6 6 6 7 7 8 9 10 11 11 12 12 13 13 14 14 14 14 14 14 15 16 17 17 16 17 19 21 23 26 29 30 30 30 31 32 33 35 36 37 38 38 38 36 34 33 33 32 32 32 30 28 28 28 26 25 24 23 22 20 19 17 16 16 16 15 14 15 16 16 17 17 17 18 18 18 18
6 6 6 6 6 7 7 8 9 10 11 11 12 13 14 15 15 16 16 17 17 18 19 20 20 20 19 19 19 18 19 19 19 18 18 19 21 23 25 27 29 29 29 31 32 34 34 35 35 36 37 36 33 32 32 32 32 34 34 32 32 30 26 23 23 21 20 18 16 15 15 15 14 12 12 13 13 14 16 17 17 18 17 17 18
9 10 10 10 11 11 11 12 12 13 14 15 15 16 18 18 19 20 21 21 22 22 23 24 25 25 25 24 24 24 23 23 23 22 21 21 22 24 26 27 27 27 27 29 31 32 33 32 32 32 34 34 33 33 33 34 35 36 33 30 27 25 22 22 23 21 18 16 16 15 14 12 11 10 11 11 13 14 16 16 16 16 17 18 20
9 10 12 12 13 13 13 14 14 15 15 16 17 18 19 20 21 22 23 24 25 25 26 26 27 28 28 28 28 29 28 28 28 27 26 25 24 25 28 29 28 28 29 30 31 32 32 30 29 30 32 33 35 36 37 37 38 38 35 29 22 19 19 21 21 19 17 16 15 13 11 10 10 10 11 12 14 15 16 15 15 17 19 21 22
10 11 12 13 14 14 15 15 16 17 17 17 18 19 20 21 21 22 23 24 25 25 26 27 27 29 30 30 30 30 30 31 31 30 30 30 28 27 28 28 28 28 30 31 31 31 30 29 28 29 30 31 34 36 38 39 39 39 36 28 21 20 20 20 19 17 16 15 13 11 10 10 10 11 12 14 15 15 15 16 17 19 21 22 22
11 13 14 15 16 17 17 17 17 18 18 18 19 19 19 20 20 20 21 21 22 23 24 24 25 27 28 29 30 29 29 30 31 31 31 31 31 30 29 28 27 28 30 31 31 30 29 28 27 27 28 29 30 31 33 35 36 33 28 24 23 22 22 20 19 18 16 14 12 11 11 12 13 13 14 14 15 15 16 18 19 20 21 21 21
13 15 17 19 20 21 21 21 20 20 19 19 19 19 20 20 20 20 20 20 21 22 22 23 24 25 26 28 29 29 29 29 30 30 30 31 32 31 30 29 28 29 31 31 31 31 30 28 27 27 27 26 25 25 27 28 28 26 25 25 25 25 22 20 19 17 15 13 12 12 12 13 13 13 13 14 15 16 17 19 19 20 20 20 20
16 19 20 22 23 23 23 23 22 21 20 20 20 19 20 21 21 21 21 21 21 22 23 25 26 27 28 29 29 30 30 28 28 28 28 30 31 31 32 33 31 31 34 34 32 32 31 28 26 27 25 23 22 22 23 24 24 25 25 26 27 25 22 20 18 16 14 12 12 11 11 11 12 12 13 14 15 17 18 19 20 21 21 20 20
18 19 20 22 22 22 23 23 22 21 20 20 19 19 18 19 20 20 21 22 22 23 24 26 27 28 29 30 31 32 32 30 28 26 25 27 29 30 32 33 31 31 36 37 35 33 31 29 26 24 22 21 21 22 23 24 24 24 25 27 27 25 23 20 17 15 13 12 11 10 10 11 12 13 14 15 16 18 20 21 21 21 21 21 20
18 19 20 21 22 22 22 22 21 20 18 17 16 15 16 16 17 18 18 19 22 23 25 26 27 28 29 30 31 32 33 32 29 25 21 21 24 26 28 30 31 32 36 37 37 35 32 29 26 24 23 24 26 26 26 26 26 26 27 28 26 24 22 20 16 14 13 12 10 10 11 11 13 14 16 17 18 20 21 21 20 18 18 17 17
19 20 21 21 21 21 20 20 19 19 17 16 15 15 15 15 17 17 17 17 18 20 22 25 27 28 30 30 30 32 33 33 30 27 23 21 20 20 22 25 28 32 35 37 39 38 34 31 29 27 27 30 31 30 30 30 30 29 28 27 25 23 21 18 16 14 13 12 12 12 12 12 14 15 16 17 19 19 18 17 15 14 14 14 15
19 20 20 20 20 20 18 17 17 17 17 18 18 18 18 17 18 19 19 19 18 18 20 22 24 26 29 31 30 31 32 33 32 29 27 25 22 19 18 20 24 26 29 33 38 39 36 33 31 30 31 33 34 34 34 34 32 30 27 25 24 22 19 16 15 14 14 13 12 12 12 13 15 15 16 16 16 14 13 13 12 12 12 13 14
19 20 20 19 18 18 17 16 16 17 18 19 21 22 22 21 19 19 19 20 19 18 19 20 21 22 26 29 30 30 30 31 31 28 26 25 23 19 17 18 21 21 21 24 32 36 35 32 32 32 32 34 37 38 38 36 33 30 27 25 22 19 17 15 15 13 12 12 11 12 13 14 14 14 14 12 10 10 10 11 11 11 12 14 15
20 20 18 17 16 16 16 16 17 19 20 21 22 24 25 25 23 21 19 18 18 18 19 20 20 20 22 25 27 29 28 28 28 26 24 24 23 19 15 15 17 16 15 18 24 30 34 35 35 36 37 39 41 41 39 36 33 30 28 26 22 17 15 14 13 12 11 11 12 13 13 13 13 12 10 8 8 9 10 10 10 12 13 14 16
19 18 16 16 16 16 16 17 18 20 22 23 24 24 24 25 25 24 21 17 16 16 16 17 17 18 20 22 24 26 25 24 24 24 24 22 19 16 13 13 13 13 13 15 17 22 29 34 36 38 39 39 39 37 34 32 31 29 26 22 18 15 14 13 12 12 12 11 11 12 13 13 11 9 7 7 8 9 9 10 11 12 14 16 18
17 15 14 15 16 17 18 18 19 20 22 22 21 20 20 20 20 21 20 17 15 13 12 13 14 16 18 19 21 23 22 20 20 21 21 19 16 14 14 15 14 13 15 16 15 18 25 31 34 36 35 32 31 31 30 28 26 24 21 17 15 14 15 14 12 11 9 9 10 11 11 11 9 7 7 7 8 8 10 11 12 13 16 17 17
14 13 14 15 17 17 18 18 18 19 19 17 14 15 16 16 16 15 16 17 17 15 13 14 15 16 15 15 17 19 19 18 17 17 17 17 16 16 17 18 17 16 16 16 16 18 23 28 33 36 33 30 29 29 29 26 22 20 18 17 16 15 15 13 11 9 8 9 10 11 10 9 8 7 6 6 8 9 10 12 13 14 15 15 14
13 14 15 17 17 17 18 19 18 16 14 12 12 12 13 14 14 13 12 13 14 15 15 16 16 14 13 12 14 16 16 16 15 15 15 17 18 19 20 20 19 17 16 17 18 19 22 26 31 33 33 32 28 26 25 23 20 18 17 18 17 16 14 12 11 10 10 10 11 10 10 9 7 5 5 6 9 10 11 12 13 13 12 12 11
14 14 16 17 17 17 17 16 15 14 13 12 11 11 11 11 11 10 10 10 11 13 15 17 17 15 11 10 11 13 13 14 14 15 16 18 19 20 20 20 18 16 16 19 19 19 21 25 27 30 34 32 26 21 20 19 19 18 18 17 15 13 12 12 12 13 12 11 11 10 10 8 6 4 5 7 10 11 11 11 10 10 10 10 9
14 13 15 17 15 13 13 12 11 13 14 12 10 10 11 11 10 8 9 11 14 15 16 16 16 15 13 12 12 11 10 10 12 13 14 14 15 16 16 16 14 14 16 19 20 21 22 23 25 29 33 30 25 22 20 18 19 19 17 15 14 13 13 14 16 15 13 11 10 10 8 6 4 4 6 8 9 10 10 10 9 8 8 9 9
12 13 16 15 11 8 9 10 10 11 11 11 10 9 10 11 11 11 13 15 15 14 14 13 13 13 15 15 14 11 9 8 8 8 7 7 8 10 12 11 10 12 15 19 20 20 22 23 24 26 26 24 22 22 20 19 20 19 17 16 16 16 17 18 17 14 11 10 10 8 6 4 3 4 6 8 9 10 10 10 9 8 7 8 9
11 12 15 13 7 5 7 9 10 10 10 10 9 8 9 11 13 13 15 15 13 12 13 13 12 13 15 16 13 10 8 7 5 2 2 4 6 8 9 9 11 13 16 20 20 18 18 19 20 20 21 21 21 22 22 23 23 21 19 18 19 19 18 17 14 11 10 9 8 6 4 3 3 5 6 8 9 10 10 8 7 6 7 8 8
11 14 15 11 7 6 7 8 9 10 11 9 8 7 9 12 12 11 12 12 12 12 13 13 12 12 13 14 13 10 6 4 4 5 7 8 8 8 6 5 7 10 11 14 16 15 14 15 17 20 22 23 23 25 25 25 23 20 18 18 18 18 17 15 12 10 9 8 5 3 3 3 4 5 6 8 8 8 7 6 6 6 6 7 8
12 16 15 10 8 7 7 8 8 10 11 9 7 7 10 10 10 11 12 13 14 13 12 11 11 11 11 13 14 11 8 8 9 9 9 8 7 7 5 3 2 4 7 9 11 13 15 18 21 24 25 25 25 25 24 21 19 18 17 16 17 17 16 13 11 10 8 5 4 4 4 4 5 5 6 7 6 5 5 6 5 5 7 8 8
13 16 14 9 9 9 8 7 7 9 11 10 7 8 9 9 11 13 14 13 13 13 11 10 11 12 13 15 15 13 10 9 8 8 8 7 7 5 2 4 6 7 8 9 12 18 22 25 25 26 26 24 22 20 18 17 17 16 16 16 16 16 14 12 10 8 5 4 4 4 5 6 5 5 6 6 6 7 7 6 5 7 8 8 7
12 15 14 10 9 10 10 8 5 6 9 9 8 7 8 9 11 14 14 13 12 12 11 11 12 14 14 15 14 12 10 7 6 5 5 4 4 3 2 6 8 9 11 13 16 20 24 25 24 22 20 18 17 16 16 16 14 13 13 13 14 14 12 10 9 7 5 5 6 6 6 6 5 5 5 6 6 7 6 5 7 7 6 6 6
12 15 14 10 9 10 10 8 6 4 4 5 6 6 7 10 13 14 14 16 15 11 8 9 11 12 13 14 13 13 11 8 7 6 4 2 3 3 1 5 9 11 13 13 14 17 19 19 18 16 16 17 18 18 17 16 13 11 10 10 11 10 9 8 7 7 7 8 9 8 7 6 5 5 6 6 5 5 3 3 4 3 4 4 5
12 14 14 11 10 10 10 10 8 6 4 3 5 5 6 10 13 13 14 16 14 9 9 10 10 12 14 15 16 16 14 11 9 8 7 5 4 3 1 4 9 11 11 10 12 14 15 14 14 16 18 19 18 17 15 14 13 12 11 10 9 8 7 7 8 9 10 10 9 7 6 6 6 5 5 5 4 1 1 2 2 3 3 5 7
12 13 13 12 12 11 11 11 8 4 3 2 3 3 6 10 11 12 15 16 12 10 11 12 11 12 14 15 16 16 14 12 10 8 7 7 6 5 1 4 10 12 9 9 12 16 16 16 17 17 18 18 16 14 11 10 11 11 10 8 7 8 8 8 8 8 9 8 7 6 6 5 5 5 4 3 1 2 2 1 2 3 5 7 6
10 11 11 12 12 12 11 10 6 1 1 1 2 3 6 8 8 10 14 14 10 11 12 10 9 10 11 11 11 11 10 9 8 7 6 6 8 8 6 5 9 12 13 16 18 18 18 18 18 17 15 14 12 9 8 8 8 9 7 5 5 6 7 7 7 7 6 6 5 5 5 4 4 4 3 3 4 4 1 1 1 4 8 7 3
8 9 10 11 11 11 12 11 6 3 2 1 1 3 5 5 6 10 12 10 10 12 11 9 7 7 7 6 5 6 6 6 7 8 8 10 12 12 12 13 14 16 18 19 19 17 16 16 14 12 11 9 6 5 4 5 6 6 6 4 4 4 5 5 6 6 6 6 5 6 6 6 5 4 5 6 7 5 1 0 1 4 10 8 3
7 8 9 10 10 10 11 11 8 4 3 2 0 2 3 4 7 10 9 8 11 11 10 7 5 5 5 5 5 6 5 6 7 9 11 11 12 13 13 14 15 15 15 15 14 13 12 11 9 7 6 5 4 4 4 4 5 5 5 4 3 4 6 7 8 9 8 8 8 9 8 7 6 6 7 7 7 5 2 1 1 4 9 10 5
5 7 9 10 10 9 9 10 9 6 3 2 1 1 2 5 8 7 6 9 9 8 6 6 5 6 7 8 8 7 7 7 7 9 10 10 10 10 11 11 11 11 11 10 10 9 8 7 6 5 4 4 5 5 6 5 6 6 6 6 7 8 9 10 10 10 9 9 9 9 8 7 6 6 7 8 7 6 4 1 1 2 6 9 7
Wind_Direction
190 191 195 195 190 186 186 186 183 184 191 195 196 194 191 193 197 194 182 163 149 144 144 151 153 156 168 177 181 186 190 191 194 194 181 170 168 173 176 180 185 183 179 180 181 184 183 175 169 164 162 161 161 163 169 179 187 185 188 201 205 207 211 216 219 203 193 201 220 219 169 134 118 117 123 84 59 86 102 101 93 91 102 2 1
191 192 196 196 194 193 191 188 188 190 192 196 200 194 188 190 194 186 165 150 144 138 134 140 145 151 164 174 181 186 193 197 194 192 187 176 169 171 175 178 182 180 175 172 172 176 179 177 172 169 172 179 182 188 194 198 203 204 197 199 201 203 208 212 211 205 200 201 208 204 170 148 141 121 135 132 33 38 111 123 127 156 237 321 343
192 192 198 198 197 198 196 195 197 195 194 199 198 188 178 178 179 168 156 149 139 129 125 128 132 143 161 173 177 181 188 189 184 182 183 176 167 166 170 175 175 171 169 165 161 165 173 179 180 179 182 191 197 199 199 199 204 205 197 192 195 197 202 210 217 210 198 193 202 206 195 165 151 140 142 162 260 282 268 239 240 265 293 315 324
193 191 196 197 197 198 197 200 201 196 196 199 189 176 167 169 166 153 152 149 136 126 126 124 120 125 148 167 174 176 176 172 168 166 168 167 163 161 164 169 171 168 166 164 158 158 166 176 182 185 190 198 200 198 195 196 200 198 190 188 195 201 207 212 220 220 208 198 192 200 206 196 173 171 179 195 228 257 264 272 282 286 295 302 307
195 194 194 192 193 195 194 197 199 196 198 194 181 174 170 171 165 155 154 152 140 135 139 139 126 116 129 155 166 170 168 164 161 159 161 163 163 163 165 169 172 170 169 169 165 160 162 171 177 181 187 194 197 201 202 201 199 195 194 195 200 214 217 207 205 216 220 208 187 187 202 208 206 210 217 217 226 243 262 277 285 285 286 289 295
198 196 193 190 192 194 192 193 194 193 195 188 178 179 182 176 165 155 155 154 146 143 148 155 152 139 137 148 159 167 168 165 166 167 167 168 170 171 173 176 178 177 176 176 177 175 174 177 181 184 190 197 203 207 207 204 201 199 199 201 206 220 221 206 201 209 217 217 207 201 208 215 221 228 226 223 230 245 265 280 281 278 279 282 287
195 193 191 189 188 188 189 189 188 187 188 185 182 184 181 173 161 152 154 155 154 152 154 164 171 165 167 172 167 172 173 170 177 182 180 178 180 182 184 188 191 190 188 187 189 191 192 193 197 198 201 207 212 214 211 208 208 206 206 209 210 211 213 210 208 208 211 218 219 217 221 224 227 233 232 228 236 249 262 272 274 269 269 274 280
186 184 187 188 184 181 179 177 178 181 182 182 181 175 164 162 155 150 154 159 162 163 158 170 181 179 187 198 192 195 200 185 186 192 194 191 191 194 198 201 204 204 203 204 206 207 207 208 211 213 214 215 216 217 218 218 219 217 215 218 216 210 212 217 216 212 212 216 217 218 224 227 228 235 239 238 244 252 255 259 263 262 265 271 276
181 175 181 188 185 177 167 168 181 188 188 187 181 168 158 159 159 161 165 168 172 178 178 181 189 191 198 209 212 221 234 227 207 204 207 206 204 206 208 210 214 217 218 221 223 224 225 225 225 224 225 225 224 223 225 227 229 227 223 223 223 219 218 221 221 219 219 221 218 216 220 225 230 237 244 248 252 256 254 254 256 259 265 271 276
173 168 174 183 182 174 163 170 187 189 187 189 190 188 178 169 172 177 181 183 185 193 200 202 202 203 206 213 221 231 239 241 235 226 223 224 222 220 220 220 223 226 229 232 235 237 241 242 241 238 237 236 233 231 230 230 231 230 226 226 228 228 226 226 225 226 228 228 224 221 225 232 235 238 244 251 254 255 254 255 256 258 262 268 275
146 146 154 163 170 175 172 177 191 195 193 191 191 195 196 192 195 199 199 201 201 199 201 200 200 205 212 222 231 238 243 243 245 248 244 240 238 235 233 231 229 231 234 237 240 244 247 248 249 247 246 245 244 241 237 232 230 229 229 229 230 232 233 233 232 231 231 231 230 232 238 242 244 246 249 253 256 255 255 256 258 259 262 267 273
131 131 136 141 150 159 161 171 187 196 200 197 193 197 203 207 210 210 209 210 210 204 201 203 205 206 213 225 233 240 247 250 250 251 251 252 252 252 250 245 240 237 237 237 240 243 246 248 249 248 249 250 250 249 246 240 234 231 231 232 234 235 237 240 241 240 238 236 237 240 244 245 248 254 258 260 260 259 257 256 257 260 264 270 276
125 127 129 129 130 133 139 152 165 175 184 188 189 194 198 201 205 207 209 212 215 213 206 207 211 211 214 222 228 233 239 245 249 251 252 253 253 253 255 256 254 250 246 244 243 244 247 249 249 250 251 250 250 251 252 249 244 240 238 238 239 239 239 241 244 245 244 244 246 248 250 251 254 258 261 263 263 262 260 258 259 261 266 274 283
121 122 125 126 125 126 134 142 146 150 159 168 174 175 173 177 187 198 204 209 215 219 218 219 221 221 223 225 228 233 235 238 243 247 250 252 253 252 253 254 255 257 257 255 252 250 251 251 250 251 251 249 249 251 252 250 248 247 246 247 247 247 246 245 245 246 246 248 251 253 254 255 256 256 256 257 258 260 261 261 263 266 272 280 288
116 117 120 122 123 124 127 130 132 136 141 150 158 157 155 158 164 176 185 190 200 210 219 226 229 232 235 234 233 236 237 239 242 245 247 250 251 253 253 253 253 254 255 256 256 255 255 255 254 253 251 250 248 246 247 249 248 249 250 251 252 252 251 250 249 248 248 249 251 251 252 252 251 251 252 253 257 260 263 265 267 271 278 285 290
115 118 119 120 123 125 126 127 128 133 139 146 151 152 153 156 163 175 185 189 196 203 208 216 221 227 236 239 240 241 242 244 246 247 249 251 252 253 251 250 250 250 250 253 256 258 259 260 260 256 252 253 251 249 250 252 253 254 253 250 251 252 252 251 250 249 248 247 246 245 247 248 247 249 253 257 260 263 265 268 272 276 282 287 290
112 117 122 121 122 130 139 141 136 138 150 158 160 160 162 166 173 181 187 190 197 205 212 219 223 225 230 236 240 244 246 248 249 249 249 251 254 255 254 251 248 246 246 249 252 256 260 263 262 256 250 253 258 260 257 253 254 257 254 248 248 251 252 250 250 250 248 242 239 239 240 243 245 248 252 256 258 262 265 270 275 280 284 287 290
100 117 136 133 126 148 169 181 193 207 206 204 207 208 207 211 214 212 211 211 212 217 224 228 231 237 242 243 244 248 249 251 252 251 248 248 250 254 257 260 257 251 249 249 252 256 260 263 263 260 257 259 263 262 257 250 249 252 252 250 249 249 253 256 254 251 246 237 232 233 233 236 241 244 248 253 258 263 268 272 276 281 285 288 293
36 25 281 276 281 273 258 249 249 255 256 252 254 254 251 250 251 251 250 248 246 247 248 248 246 246 249 250 252 253 253 252 253 256 255 252 252 253 256 260 262 261 258 257 257 258 260 262 263 263 263 264 263 260 255 249 246 244 244 249 253 253 257 263 258 248 241 232 226 226 227 231 238 243 249 256 260 266 271 277 281 284 288 293 299
345 335 319 309 301 294 288 282 277 275 273 271 271 270 269 268 267 266 265 263 261 259 260 260 259 257 255 254 254 255 257 257 255 257 260 259 257 258 258 259 261 262 262 261 260 260 261 261 262 262 262 262 262 259 253 246 243 243 246 253 261 262 261 257 247 236 230 224 219 219 222 227 236 244 253 260 266 273 278 282 285 287 292 297 299
312 309 308 310 310 306 301 296 292 288 283 280 278 276 276 276 275 275 274 272 271 268 266 264 263 261 259 257 255 254 256 257 255 255 257 259 261 263 264 264 265 265 266 266 265 263 261 260 260 260 261 262 261 257 251 245 245 250 257 262 265 264 255 241 231 222 215 212 211 211 215 225 237 247 257 265 272 277 280 283 287 292 296 297 296
299 297 298 300 301 303 304 303 301 298 294 290 287 285 284 283 282 281 280 279 279 277 274 271 268 266 263 260 259 257 255 256 256 255 253 254 257 263 267 269 270 271 271 270 269 266 262 259 258 257 258 259 258 254 252 249 249 255 264 266 257 244 235 228 221 211 203 204 207 208 218 234 246 254 262 269 273 276 280 285 290 293 294 294 296
295 296 297 297 299 302 304 303 301 298 295 292 290 288 287 286 286 286 284 282 281 280 278 275 272 270 267 264 262 261 258 256 255 255 254 253 252 256 262 266 270 272 271 269 268 266 262 261 260 259 257 257 257 256 255 253 254 257 260 254 233 218 220 220 213 205 202 205 210 218 234 248 257 264 269 271 273 276 280 283 285 288 290 294 297
305 306 307 306 306 307 308 307 305 301 297 294 292 290 289 288 287 287 286 284 282 281 280 279 277 274 272 269 266 265 264 261 257 255 255 255 252 250 251 255 261 268 270 267 264 263 262 261 261 261 260 259 259 259 258 256 255 251 243 228 214 212 218 216 208 204 207 212 221 233 245 255 263 268 269 270 273 276 278 280 283 287 291 295 297
309 311 310 311 312 312 311 309 306 304 303 299 297 296 294 291 289 288 287 285 284 284 283 283 283 281 279 276 273 269 266 264 262 259 257 255 253 250 248 248 253 262 267 266 263 261 262 262 260 260 260 259 259 260 257 251 243 232 220 213 211 212 212 207 203 207 214 222 233 245 254 262 267 267 268 272 276 278 280 283 286 290 292 292 292
307 309 309 309 309 308 306 303 300 298 297 295 294 294 293 292 291 289 289 289 289 289 289 288 288 287 285 282 279 275 271 268 266 266 265 261 257 254 252 250 251 259 265 264 260 259 260 258 256 257 258 257 256 253 243 230 221 216 213 210 208 208 207 206 209 219 228 235 243 250 257 263 267 270 273 276 276 278 281 284 286 286 285 284 283
315 316 314 313 311 308 305 301 297 292 288 286 287 287 287 289 290 290 291 292 291 291 291 291 291 291 290 287 283 280 276 273 270 271 273 270 264 260 257 252 252 261 265 261 256 254 254 252 250 253 254 250 243 233 222 215 211 207 205 205 206 208 211 214 221 230 237 240 242 242 247 257 264 268 270 270 272 276 279 281 281 281 281 282 283
326 325 321 319 317 314 311 307 301 295 291 291 292 293 291 289 288 288 289 290 291 290 289 288 288 290 290 290 289 286 281 276 272 271 276 278 271 265 263 260 258 262 265 262 257 253 249 246 243 241 236 229 223 216 210 207 205 201 199 201 204 208 212 215 220 223 226 230 233 235 242 251 257 261 264 267 271 274 276 277 278 280 283 287 290
335 333 330 326 322 318 313 309 305 301 297 296 295 295 297 296 293 290 287 286 289 290 290 288 286 285 284 286 289 290 288 284 277 268 267 275 276 272 273 274 271 268 264 259 255 250 244 237 231 226 223 220 217 212 206 203 202 201 202 205 208 209 209 209 211 214 219 224 228 231 239 247 252 257 262 266 269 270 272 275 280 285 292 298 303
336 338 335 330 324 319 314 310 306 304 302 299 294 290 287 286 287 288 286 283 281 283 286 288 286 283 281 281 282 285 286 286 283 273 265 267 271 274 282 288 287 283 273 260 251 245 238 231 224 219 217 219 219 214 208 204 203 203 204 205 205 201 196 199 207 214 217 220 222 229 238 245 250 255 258 261 264 268 275 283 291 297 304 309 312
336 336 334 331 328 326 324 320 317 316 315 313 310 305 299 294 292 291 289 286 282 278 277 279 279 280 279 278 278 278 278 280 282 278 269 263 263 267 281 291 291 291 288 271 253 241 230 223 222 221 219 220 220 216 209 205 204 203 198 193 190 190 194 204 212 211 209 214 220 229 236 242 248 252 253 257 266 278 287 294 301 309 314 315 317
335 335 335 334 335 335 334 332 328 325 321 317 314 310 307 305 303 300 295 290 283 277 274 274 275 277 278 277 277 278 278 279 280 277 268 260 257 259 274 288 287 285 287 278 261 243 227 216 214 215 217 219 217 211 205 201 199 195 189 186 187 195 203 206 203 198 201 211 219 227 235 242 247 248 250 261 277 285 292 301 311 317 319 321 324
333 337 337 337 338 337 335 331 326 322 318 315 311 308 307 308 306 304 299 291 281 275 274 276 280 283 283 281 278 277 276 279 281 276 265 256 252 254 266 278 280 275 269 269 265 250 235 225 218 214 213 212 207 201 197 192 188 185 187 192 197 197 194 192 192 197 204 213 222 230 235 237 238 241 250 268 281 290 302 311 318 321 322 324 328
333 336 337 336 334 331 329 326 321 317 315 314 313 313 313 313 311 308 305 302 297 290 282 281 289 295 291 282 275 270 267 271 279 275 260 249 246 252 261 267 268 264 260 260 259 251 242 237 232 226 217 207 198 193 188 184 185 187 190 193 192 188 186 189 195 203 213 224 231 231 229 227 230 240 256 273 291 305 312 314 318 321 322 324 328
334 338 340 338 332 327 327 324 318 314 314 317 322 327 328 327 324 321 318 316 317 317 312 303 302 304 300 287 275 267 261 263 271 268 254 246 249 252 257 262 263 260 259 257 256 253 249 244 239 231 216 199 192 191 189 189 195 197 190 183 182 185 188 191 197 208 222 227 225 222 221 223 232 247 264 287 307 312 311 313 317 319 321 325 328
338 341 343 341 335 329 327 324 319 316 320 325 330 335 337 337 336 334 333 331 328 329 329 324 318 314 307 293 284 278 268 262 265 266 259 254 252 252 255 260 261 261 263 262 258 256 252 248 242 227 206 191 191 197 198 197 198 195 187 184 185 186 186 190 202 215 224 224 221 219 221 227 238 257 281 302 310 310 312 316 318 319 322 325 328
338 339 339 338 334 328 326 326 328 334 339 340 340 341 346 349 348 346 345 340 330 324 324 323 322 322 316 299 290 286 274 262 260 264 264 260 255 253 256 257 256 260 267 267 261 252 245 243 235 216 198 191 193 196 191 187 187 188 187 184 183 183 185 194 209 219 224 226 224 221 223 232 245 268 291 304 309 312 317 321 320 319 321 327 335
335 336 336 333 330 330 332 337 344 348 350 354 358 359 357 355 352 345 338 333 329 327 327 324 322 325 326 315 300 286 271 263 262 261 259 257 253 253 256 258 258 261 263 262 258 249 239 233 222 205 196 192 188 185 187 192 194 192 185 178 177 182 190 200 209 216 220 222 221 221 226 236 250 272 296 308 312 314 321 327 329 331 339 348 349
330 333 335 332 329 332 338 342 346 346 348 351 356 360 360 355 346 334 331 334 339 344 346 343 339 340 338 328 312 295 282 277 268 254 252 258 263 267 269 267 265 264 257 253 250 242 233 228 220 207 197 190 183 183 190 194 188 181 178 178 181 186 194 201 206 210 215 218 217 216 218 227 246 281 305 313 315 319 329 340 347 352 354 353 348
328 336 338 332 321 323 335 339 340 341 342 342 344 351 354 347 340 336 338 343 349 355 354 351 349 350 349 345 340 332 316 299 277 257 322 342 336 321 301 280 271 268 254 242 236 233 230 229 221 202 187 179 176 176 179 180 178 178 182 186 186 188 194 199 204 210 214 210 204 202 208 226 265 296 310 315 319 329 342 354 358 350 346 353 360
334 343 341 327 306 310 331 340 342 346 347 343 341 348 350 346 346 350 355 356 355 355 353 351 350 353 360 7 14 18 15 7 15 22 16 8 4 360 347 307 283 274 251 227 220 218 215 207 193 176 166 163 166 172 179 184 184 184 185 184 182 185 191 197 204 213 212 203 200 216 237 253 280 301 309 314 322 336 348 348 338 338 357 18 19
345 349 343 325 298 302 325 337 345 355 360 355 349 354 358 2 7 8 5 3 0 357 356 356 355 358 6 16 21 27 36 41 36 25 14 9 10 18 33 70 171 217 222 217 210 199 184 171 164 162 162 166 173 180 186 188 185 181 181 179 179 186 195 204 210 214 214 217 235 255 256 261 281 299 309 314 319 323 321 321 331 3 31 35 19
352 352 346 327 297 299 319 333 345 2 6 4 7 13 12 15 14 7 4 6 5 0 360 3 6 6 7 11 16 21 28 36 36 26 16 12 11 18 69 147 172 191 200 196 185 175 168 164 164 168 173 178 181 181 180 178 177 178 178 179 185 196 205 210 211 214 223 240 256 259 256 263 280 297 303 304 306 309 317 339 28 47 39 28 8
358 356 351 334 306 304 315 318 327 356 1 359 5 11 9 9 8 5 5 6 2 358 359 2 5 7 5 4 8 14 21 31 35 27 22 17 7 9 159 182 192 195 188 180 174 172 171 171 173 174 172 167 163 161 161 165 171 177 181 188 198 203 202 203 211 223 239 255 265 267 264 266 277 290 292 292 298 311 334 34 66 51 24 9 354
0 357 355 345 323 317 322 321 318 325 342 352 355 350 351 359 1 3 5 2 356 358 10 11 5 6 9 12 18 23 27 30 29 26 36 48 17 1 224 205 206 201 193 190 186 183 181 179 176 168 158 154 155 160 162 162 164 170 182 195 200 196 195 208 229 245 256 265 269 268 263 262 269 278 280 279 286 305 354 69 71 22 353 344 342
1 359 360 357 343 332 331 331 321 291 268 318 342 335 344 356 356 356 1 2 1 16 42 39 25 20 24 31 37 39 39 38 34 30 34 37 25 12 316 213 206 199 196 193 185 178 174 172 168 162 158 158 161 164 164 162 161 166 175 184 193 201 216 237 250 256 260 262 261 256 252 254 257 258 261 267 270 275 73 56 9 346 336 332 338
2 0 1 359 353 347 343 341 334 291 242 293 332 336 350 355 353 352 357 4 20 53 61 51 39 33 34 38 42 43 42 40 35 30 30 31 32 39 53 209 206 197 182 161 157 158 158 161 164 164 163 166 168 170 167 164 164 168 177 191 210 227 239 247 250 250 248 245 241 236 234 236 237 236 242 251 191 131 107 12 348 352 341 335 336
1 4 4 1 359 360 359 357 360 49 162 325 338 346 348 349 350 354 359 10 44 71 64 52 46 40 36 38 43 44 43 38 33 36 50 63 70 76 91 147 172 166 151 145 149 153 154 157 160 162 163 167 172 171 168 168 171 176 188 210 229 235 240 242 239 231 221 213 212 210 199 189 193 200 188 146 133 133 119 12 29 9 356 349 340
4 10 11 7 6 12 14 13 21 75 113 88 343 335 336 339 350 358 4 29 74 81 67 58 54 44 40 49 62 63 61 56 55 64 83 95 97 99 105 116 129 136 140 144 148 150 149 148 150 150 153 157 161 166 177 194 202 205 213 228 236 233 227 214 199 184 172 164 156 144 135 132 141 159 156 144 142 146 155 309 47 17 10 15 35
11 11 9 10 14 21 23 23 27 52 97 115 10 321 325 345 357 2 19 68 91 84 72 66 65 64 73 85 84 73 68 69 75 82 90 97 100 102 105 110 117 123 127 130 132 133 132 132 131 131 132 133 136 146 164 183 192 193 195 200 200 186 172 161 153 146 141 137 129 120 116 118 128 148 156 155 156 164 187 305 18 19 14 19 33
9 0 357 3 13 22 27 28 30 39 69 108 102 336 326 343 354 10 64 98 94 81 78 83 90 97 96 86 74 67 63 65 73 78 81 84 87 89 90 93 97 101 102 103 105 106 106 103 102 102 104 115 131 142 148 151 153 153 150 149 149 147 143 140 138 134 132 131 127 119 116 117 123 138 153 160 167 181 204 263 353 15 11 15 22
Height
1521 1524 1527 1531 1533 1535 1536 1537 1538 1539 1540 1540 1541 1541 1542 1542 1542 1543 1543 1543 1543 1544 1545 1545 1546 1547 1548 1549 1550 1551 1552 1553 1554 1554 1555 1556 1557 1558 1559 1560 1561 1561 1562 1562 1563 1563 1564 1565 1566 1567 1568 1569 1570 1571 1572 1572 1573 1573 1574 1574 1575 1575 1576 1576 1576 1576 1577 1578 1578 1579 1580 1580 1580 1580 1580 1580 1580 1580 1579 1578 1578 1577 1577 1577 1577
1521 1524 1527 1530 1533 1535 1536 1538 1539 1540 1540 1540 1541 1541 1542 1542 1542 1543 1543 1543 1543 1544 1545 1545 1546 1546 1547 1549 1550 1551 1552 1553 1554 1555 1555 1557 1557 1558 1559 1560 1561 1562 1562 1562 1563 1563 1564 1565 1567 1568 1569 1570 1570 1571 1572 1572 1572 1573 1573 1574 1575 1575 1576 1576 1576 1576 1576 1577 1577 1578 1578 1579 1579 1579 1579 1579 1579 1579 1579 1578 1577 1576 1576 1576 1576
1522 1525 1528 1531 1534 1535 1537 1538 1539 1540 1540 1540 1541 1542 1542 1542 1542 1542 1542 1543 1543 1544 1545 1545 1546 1546 1547 1549 1550 1551 1552 1552 1553 1554 1555 1557 1557 1558 1559 1560 1561 1562 1562 1563 1563 1564 1564 1566 1567 1568 1569 1570 1570 1571 1572 1572 1572 1573 1574 1574 1575 1576 1576 1576 1576 1576 1576 1576 1576 1577 1577 1578 1578 1578 1578 1578 1578 1578 1578 1577 1576 1576 1576 1576 1576
1524 1526 1529 1532 1534 1536 1537 1539 1539 1540 1540 1541 1542 1542 1543 1542 1542 1542 1542 1543 1543 1544 1545 1546 1546 1547 1548 1549 1550 1551 1552 1552 1553 1554 1555 1557 1558 1558 1560 1561 1562 1562 1563 1563 1564 1565 1565 1566 1567 1568 1569 1570 1570 1571 1571 1572 1572 1573 1573 1574 1575 1575 1575 1575 1575 1575 1575 1575 1576 1576 1576 1577 1577 1577 1578 1577 1577 1577 1577 1577 1576 1575 1575 1575 1575
1523 1525 1528 1531 1533 1535 1536 1538 1539 1539 1540 1541 1542 1543 1543 1543 1543 1543 1543 1543 1544 1545 1545 1546 1547 1548 1549 1550 1550 1551 1552 1553 1554 1555 1556 1557 1558 1559 1560 1561 1562 1562 1563 1564 1564 1565 1566 1567 1568 1569 1569 1570 1570 1571 1571 1572 1572 1572 1573 1574 1574 1574 1574 1574 1575 1574 1574 1575 1575 1575 1576 1576 1576 1577 1577 1577 1576 1576 1576 1576 1575 1575 1574 1574 1574
1523 1525 1529 1532 1533 1534 1535 1537 1538 1539 1540 1541 1543 1543 1543 1543 1543 1543 1543 1544 1545 1545 1546 1547 1548 1549 1550 1550 1551 1552 1553 1554 1555 1555 1556 1557 1558 1559 1560 1561 1562 1563 1564 1564 1565 1566 1566 1567 1568 1569 1569 1570 1570 1570 1570 1571 1571 1572 1572 1573 1573 1573 1573 1574 1574 1574 1574 1574 1574 1575 1575 1575 1575 1575 1576 1576 1576 1576 1575 1575 1574 1574 1573 1573 1573
1524 1526 1529 1531 1532 1533 1535 1537 1537 1539 1540 1541 1543 1544 1544 1544 1544 1544 1544 1544 1545 1546 1547 1548 1548 1549 1550 1551 1552 1553 1554 1555 1555 1556 1557 1558 1558 1559 1560 1561 1562 1563 1564 1564 1565 1566 1566 1567 1568 1568 1569 1569 1569 1569 1569 1570 1570 1571 1571 1571 1571 1572 1572 1573 1573 1573 1573 1573 1574 1574 1574 1574 1574 1574 1574 1575 1575 1574 1574 1574 1573 1573 1572 1572 1571
1526 1528 1529 1529 1530 1532 1534 1536 1538 1540 1540 1541 1542 1544 1544 1544 1544 1544 1545 1545 1546 1547 1547 1548 1549 1549 1550 1551 1552 1553 1554 1555 1555 1556 1557 1558 1558 1559 1560 1561 1561 1562 1563 1564 1565 1566 1566 1567 1567 1567 1568 1568 1568 1568 1569 1569 1569 1570 1570 1570 1570 1570 1571 1571 1571 1571 1572 1572 1572 1573 1573 1573 1573 1573 1573 1573 1573 1572 1572 1572 1572 1572 1571 1571 1570
1528 1529 1529 1529 1530 1531 1532 1535 1538 1539 1540 1541 1542 1543 1544 1544 1544 1545 1545 1545 1546 1546 1547 1548 1548 1549 1550 1551 1552 1553 1553 1554 1555 1556 1557 1558 1558 1559 1559 1560 1561 1562 1563 1563 1564 1565 1566 1566 1566 1567 1567 1567 1568 1568 1568 1568 1568 1568 1568 1569 1569 1569 1569 1569 1569 1570 1570 1570 1570 1571 1571 1571 1571 1571 1571 1571 1571 1570 1570 1570 1570 1570 1569 1569 1568
1529 1529 1530 1530 1532 1532 1531 1533 1536 1538 1540 1541 1541 1542 1543 1543 1544 1544 1544 1545 1545 1545 1546 1547 1548 1549 1550 1551 1551 1552 1553 1554 1555 1555 1556 1557 1558 1558 1559 1559 1560 1561 1561 1562 1562 1563 1564 1565 1565 1566 1566 1566 1566 1567 1567 1567 1567 1567 1567 1567 1567 1568 1568 1568 1568 1568 1568 1568 1568 1568 1568 1569 1569 1570 1569 1569 1569 1568 1568 1568 1568 1568 1567 1567 1566
1528 1528 1530 1531 1533 1533 1532 1533 1535 1536 1539 1540 1540 1541 1542 1542 1543 1543 1543 1544 1544 1544 1545 1546 1547 1548 1549 1550 1551 1551 1552 1553 1554 1555 1556 1556 1557 1557 1558 1559 1559 1560 1560 1560 1561 1561 1562 1562 1563 1563 1564 1564 1565 1565 1565 1565 1565 1565 1565 1566 1566 1566 1566 1566 1566 1566 1566 1566 1566 1567 1567 1567 1567 1567 1567 1567 1567 1566 1566 1566 1566 1565 1565 1565 1564
1526 1527 1529 1531 1532 1533 1533 1534 1535 1536 1538 1539 1539 1540 1541 1541 1542 1542 1542 1543 1543 1544 1544 1545 1546 1547 1548 1549 1550 1550 1551 1552 1553 1554 1555 1555 1556 1556 1557 1557 1558 1559 1559 1559 1560 1560 1560 1560 1561 1561 1561 1562 1562 1563 1563 1563 1563 1563 1563 1563 1563 1563 1564 1564 1564 1564 1564 1564 1564 1565 1565 1565 1564 1565 1565 1565 1565 1564 1564 1564 1563 1563 1562 1562 1561
1525 1526 1528 1530 1531 1532 1532 1533 1534 1536 1537 1538 1538 1538 1539 1539 1540 1541 1541 1542 1543 1543 1544 1545 1545 1546 1547 1548 1549 1549 1550 1551 1552 1552 1553 1554 1554 1555 1555 1555 1556 1557 1557 1558 1558 1558 1559 1559 1559 1559 1559 1560 1560 1560 1561 1560 1560 1560 1560 1561 1561 1561 1561 1561 1561 1561 1561 1561 1562 1562 1562 1562 1562 1562 1562 1562 1562 1562 1562 1561 1561 1560 1560 1559 1559
1525 1526 1527 1529 1530 1531 1532 1533 1533 1534 1535 1536 1537 1537 1537 1538 1539 1539 1540 1541 1541 1542 1543 1543 1544 1545 1545 1546 1547 1548 1548 1549 1550 1550 1551 1552 1552 1553 1553 1553 1554 1554 1555 1555 1556 1556 1556 1556 1556 1556 1557 1557 1558 1558 1558 1558 1557 1557 1557 1558 1558 1558 1558 1558 1558 1558 1558 1558 1559 1559 1559 1560 1560 1560 1560 1560 1560 1560 1559 1559 1558 1557 1557 1556 1556
1526 1527 1528 1529 1530 1531 1532 1533 1533 1534 1535 1535 1536 1536 1536 1537 1537 1538 1539 1539 1540 1540 1541 1541 1542 1543 1544 1544 1545 1546 1546 1547 1548 1548 1549 1549 1550 1550 1551 1551 1551 1551 1552 1552 1553 1553 1553 1553 1553 1554 1554 1554 1554 1554 1554 1554 1554 1554 1554 1554 1554 1554 1555 1555 1555 1555 1555 1555 1556 1556 1556 1557 1557 1557 1557 1557 1557 1557 1556 1556 1555 1554 1554 1554 1553
1527 1528 1529 1530 1531 1532 1532 1532 1533 1533 1534 1534 1534 1534 1535 1535 1536 1537 1538 1538 1539 1539 1539 1540 1540 1541 1541 1542 1543 1543 1544 1545 1545 1546 1546 1546 1547 1547 1548 1548 1548 1548 1548 1549 1549 1549 1550 1550 1550 1550 1550 1550 1550 1551 1550 1550 1551 1551 1550 1550 1551 1551 1551 1552 1551 1552 1552 1552 1553 1553 1554 1554 1554 1554 1554 1554 1554 1554 1553 1553 1552 1551 1551 1551 1550
1528 1529 1529 1530 1530 1531 1531 1531 1532 1532 1533 1533 1533 1533 1534 1534 1535 1536 1537 1537 1537 1538 1538 1538 1538 1539 1539 1539 1540 1540 1541 1542 1542 1543 1543 1543 1543 1543 1543 1543 1544 1544 1545 1545 1546 1546 1546 1546 1545 1544 1545 1546 1546 1547 1547 1547 1548 1548 1547 1547 1547 1547 1548 1548 1548 1549 1549 1549 1549 1550 1550 1551 1551 1551 1551 1551 1551 1550 1550 1550 1549 1549 1549 1548 1547
1527 1528 1529 1529 1529 1530 1530 1530 1531 1531 1532 1532 1532 1532 1533 1533 1534 1534 1535 1535 1536 1536 1536 1536 1536 1536 1536 1536 1536 1537 1538 1538 1539 1539 1540 1540 1540 1539 1539 1539 1539 1540 1541 1542 1542 1542 1542 1541 1541 1540 1541 1542 1542 1543 1543 1543 1544 1544 1544 1544 1544 1544 1544 1545 1546 1546 1546 1546 1546 1546 1547 1547 1547 1547 1548 1548 1548 1548 1547 1547 1547 1546 1546 1545 1544
1527 1527 1528 1528 1528 1528 1529 1529 1530 1530 1530 1530 1530 1530 1531 1531 1532 1532 1532 1533 1533 1533 1533 1533 1533 1533 1533 1533 1533 1533 1534 1535 1536 1536 1537 1537 1537 1536 1536 1535 1535 1536 1537 1537 1537 1537 1537 1537 1537 1536 1537 1538 1538 1539 1540 1539 1539 1540 1541 1541 1541 1541 1541 1542 1543 1544 1543 1543 1544 1544 1544 1544 1544 1545 1545 1546 1546 1545 1545 1545 1544 1544 1543 1542 1542
1526 1527 1527 1528 1528 1527 1527 1528 1528 1528 1527 1527 1526 1527 1527 1528 1528 1529 1529 1529 1529 1529 1529 1529 1529 1530 1530 1530 1529 1530 1530 1530 1531 1532 1533 1534 1534 1533 1532 1532 1531 1532 1532 1532 1532 1532 1532 1532 1532 1532 1532 1533 1534 1535 1535 1536 1535 1536 1536 1537 1537 1538 1538 1539 1540 1541 1541 1541 1541 1541 1541 1541 1542 1543 1543 1543 1543 1543 1543 1542 1542 1541 1541 1540 1540
1527 1527 1528 1528 1528 1527 1527 1527 1527 1526 1525 1524 1524 1524 1524 1524 1524 1524 1524 1524 1524 1524 1525 1525 1525 1525 1526 1526 1526 1526 1526 1526 1526 1527 1528 1529 1529 1529 1528 1528 1528 1528 1528 1528 1527 1527 1527 1527 1527 1528 1528 1529 1530 1531 1531 1532 1532 1531 1531 1533 1535 1536 1536 1536 1538 1538 1539 1539 1539 1538 1539 1539 1540 1541 1541 1541 1541 1541 1540 1540 1540 1539 1539 1539 1538
1528 1528 1528 1528 1528 1527 1527 1526 1526 1525 1524 1522 1522 1521 1521 1521 1521 1520 1520 1520 1520 1520 1520 1520 1521 1521 1522 1522 1522 1522 1522 1522 1522 1522 1523 1523 1524 1524 1524 1523 1524 1524 1523 1523 1522 1522 1522 1523 1523 1524 1524 1525 1526 1526 1527 1528 1528 1527 1528 1530 1532 1534 1534 1535 1536 1536 1537 1537 1536 1536 1537 1538 1539 1539 1539 1539 1539 1539 1539 1539 1539 1538 1538 1537 1537
1528 1527 1527 1527 1526 1526 1525 1524 1524 1523 1522 1521 1520 1519 1519 1518 1518 1518 1517 1517 1517 1517 1517 1517 1517 1517 1517 1517 1518 1518 1518 1518 1518 1518 1518 1518 1518 1518 1518 1519 1520 1520 1518 1518 1518 1518 1518 1518 1519 1520 1520 1521 1522 1522 1523 1524 1524 1524 1525 1527 1528 1530 1531 1533 1534 1534 1535 1535 1534 1534 1535 1536 1537 1537 1537 1537 1537 1537 1538 1538 1538 1537 1537 1536 1535
1527 1527 1526 1525 1524 1524 1523 1523 1522 1521 1520 1519 1518 1517 1517 1517 1516 1516 1515 1515 1514 1514 1514 1514 1513 1513 1513 1513 1513 1513 1514 1514 1514 1514 1513 1514 1514 1514 1514 1514 1515 1515 1514 1513 1513 1514 1514 1514 1515 1515 1516 1516 1517 1518 1518 1518 1519 1520 1522 1524 1525 1526 1528 1530 1531 1532 1532 1532 1532 1532 1533 1534 1535 1535 1536 1536 1536 1536 1537 1537 1536 1536 1535 1534 1533
1527 1526 1525 1525 1524 1523 1522 1521 1520 1519 1518 1517 1516 1515 1515 1514 1514 1513 1513 1512 1512 1512 1511 1511 1510 1510 1509 1508 1508 1509 1509 1509 1509 1509 1509 1509 1509 1510 1510 1509 1509 1510 1510 1510 1510 1510 1510 1510 1510 1510 1511 1511 1512 1513 1513 1513 1514 1516 1518 1520 1522 1523 1525 1527 1529 1530 1530 1530 1530 1530 1531 1532 1533 1534 1534 1534 1535 1535 1535 1535 1534 1533 1533 1532 1531
1526 1525 1524 1523 1522 1521 1520 1519 1518 1517 1516 1515 1514 1513 1513 1512 1511 1511 1510 1510 1509 1509 1508 1507 1507 1506 1505 1504 1503 1503 1504 1505 1505 1505 1505 1505 1505 1506 1506 1505 1505 1505 1506 1506 1506 1506 1506 1506 1506 1506 1506 1507 1508 1508 1509 1510 1511 1513 1515 1517 1520 1521 1522 1524 1526 1527 1528 1528 1528 1529 1529 1530 1531 1532 1532 1532 1533 1533 1533 1533 1532 1531 1531 1531 1530
1526 1524 1523 1522 1521 1519 1518 1517 1516 1515 1514 1513 1513 1512 1511 1510 1509 1509 1508 1508 1507 1507 1506 1505 1504 1503 1501 1500 1499 1499 1499 1500 1501 1501 1502 1501 1501 1501 1501 1500 1500 1500 1500 1501 1502 1502 1502 1502 1502 1502 1503 1504 1505 1506 1507 1508 1509 1511 1513 1516 1518 1519 1521 1522 1523 1524 1525 1526 1527 1527 1528 1528 1529 1530 1531 1531 1531 1532 1532 1531 1530 1530 1529 1528 1527
1524 1523 1521 1520 1519 1517 1516 1515 1514 1513 1512 1512 1511 1510 1510 1509 1509 1508 1508 1507 1506 1505 1504 1503 1502 1501 1499 1497 1496 1494 1494 1495 1497 1498 1498 1497 1496 1497 1496 1496 1496 1495 1496 1496 1497 1497 1497 1498 1499 1499 1500 1501 1503 1504 1505 1506 1508 1510 1512 1514 1515 1517 1519 1520 1520 1521 1523 1524 1525 1526 1526 1527 1528 1529 1529 1530 1530 1530 1530 1529 1529 1527 1526 1525 1524
1522 1521 1519 1518 1517 1515 1514 1513 1512 1511 1510 1510 1510 1509 1509 1508 1507 1506 1506 1506 1505 1503 1502 1501 1500 1498 1497 1495 1494 1492 1490 1490 1492 1493 1494 1493 1493 1493 1493 1492 1492 1491 1492 1492 1492 1491 1491 1492 1493 1495 1497 1499 1500 1502 1503 1505 1506 1508 1509 1511 1513 1515 1517 1518 1518 1520 1522 1523 1524 1524 1524 1525 1526 1527 1528 1528 1528 1528 1528 1527 1527 1525 1524 1523 1521
1523 1522 1520 1518 1516 1515 1513 1512 1511 1510 1509 1508 1507 1507 1506 1506 1505 1504 1503 1503 1502 1502 1500 1498 1497 1495 1493 1492 1492 1490 1487 1486 1486 1488 1489 1490 1490 1489 1489 1489 1488 1487 1487 1488 1488 1486 1485 1486 1488 1491 1493 1496 1498 1499 1501 1502 1504 1505 1507 1509 1512 1513 1515 1516 1517 1519 1520 1521 1522 1522 1523 1524 1525 1526 1526 1526 1526 1526 1526 1525 1524 1523 1522 1521 1519
1523 1521 1520 1518 1516 1514 1513 1511 1510 1509 1508 1507 1506 1504 1503 1502 1502 1502 1500 1499 1499 1498 1497 1496 1494 1493 1491 1489 1488 1488 1486 1484 1483 1484 1485 1486 1486 1486 1486 1486 1485 1484 1483 1484 1484 1484 1483 1483 1485 1487 1490 1492 1494 1495 1497 1499 1501 1503 1505 1508 1510 1512 1513 1515 1516 1517 1519 1519 1520 1521 1522 1523 1524 1525 1525 1525 1525 1525 1524 1523 1522 1521 1520 1518 1517
1522 1520 1519 1517 1515 1514 1512 1511 1510 1509 1508 1506 1505 1503 1501 1499 1498 1497 1497 1497 1495 1494 1493 1492 1491 1491 1489 1487 1486 1485 1484 1483 1482 1481 1482 1483 1483 1483 1483 1483 1483 1482 1481 1480 1480 1481 1482 1482 1483 1484 1486 1488 1489 1491 1493 1495 1498 1501 1504 1506 1508 1510 1512 1514 1516 1517 1517 1518 1519 1520 1521 1522 1523 1523 1523 1523 1523 1523 1522 1522 1521 1519 1518 1517 1515
1521 1519 1518 1516 1515 1514 1512 1511 1510 1508 1506 1504 1503 1501 1499 1497 1495 1493 1493 1492 1492 1491 1491 1490 1489 1488 1487 1485 1484 1483 1482 1481 1480 1479 1479 1480 1480 1480 1480 1480 1480 1480 1480 1479 1479 1480 1482 1483 1484 1485 1485 1486 1488 1490 1493 1494 1496 1499 1502 1504 1506 1508 1511 1514 1515 1516 1516 1517 1517 1519 1520 1521 1522 1522 1522 1522 1522 1521 1521 1520 1519 1518 1516 1515 1513
1520 1519 1517 1516 1515 1513 1511 1510 1508 1506 1504 1502 1501 1499 1497 1495 1493 1491 1490 1489 1489 1488 1488 1487 1487 1485 1484 1482 1481 1480 1479 1479 1478 1477 1477 1477 1477 1477 1476 1477 1477 1478 1478 1478 1478 1479 1481 1483 1484 1485 1487 1489 1491 1493 1494 1496 1497 1498 1500 1502 1504 1508 1511 1513 1514 1514 1515 1516 1517 1518 1519 1520 1520 1520 1520 1520 1520 1520 1519 1518 1517 1516 1514 1513 1512
1520 1518 1517 1515 1514 1512 1510 1508 1506 1504 1502 1501 1499 1498 1496 1494 1492 1491 1490 1488 1487 1486 1485 1484 1483 1482 1481 1479 1478 1477 1476 1476 1476 1475 1475 1475 1475 1475 1474 1474 1475 1475 1475 1476 1476 1477 1478 1480 1481 1483 1485 1489 1493 1494 1494 1495 1496 1497 1498 1500 1504 1507 1510 1511 1512 1513 1515 1516 1517 1518 1519 1519 1519 1519 1519 1519 1519 1518 1518 1517 1515 1514 1513 1511 1511
1519 1517 1516 1514 1512 1511 1509 1507 1505 1503 1501 1499 1498 1497 1495 1493 1492 1490 1489 1488 1486 1485 1483 1481 1480 1479 1478 1477 1475 1474 1474 1474 1474 1474 1473 1473 1473 1472 1472 1472 1472 1473 1473 1474 1475 1476 1476 1477 1479 1481 1483 1487 1491 1493 1494 1494 1494 1496 1498 1502 1505 1507 1508 1509 1511 1513 1515 1516 1517 1517 1517 1517 1518 1518 1518 1518 1518 1517 1516 1515 1514 1512 1511 1510 1509
1518 1516 1515 1513 1511 1509 1508 1506 1504 1502 1500 1498 1497 1496 1494 1493 1491 1490 1489 1487 1486 1484 1482 1480 1478 1476 1475 1474 1473 1472 1472 1471 1471 1471 1471 1470 1470 1469 1469 1470 1470 1470 1471 1472 1473 1474 1475 1475 1477 1479 1481 1484 1488 1492 1493 1494 1494 1496 1499 1502 1504 1505 1506 1508 1511 1513 1514 1515 1516 1516 1516 1516 1516 1516 1517 1517 1516 1516 1515 1514 1513 1511 1510 1509 1509
1517 1515 1514 1512 1510 1508 1507 1505 1503 1501 1499 1498 1496 1495 1494 1492 1491 1489 1488 1486 1484 1482 1480 1478 1476 1475 1473 1472 1471 1470 1469 1468 1468 1468 1468 1467 1467 1467 1467 1468 1468 1469 1470 1471 1472 1473 1474 1474 1475 1477 1480 1482 1485 1489 1492 1494 1495 1497 1499 1501 1503 1504 1505 1508 1511 1513 1514 1514 1515 1515 1515 1514 1515 1515 1515 1516 1515 1515 1514 1513 1511 1510 1510 1509 1508
1516 1514 1513 1510 1509 1507 1506 1505 1503 1501 1499 1497 1496 1495 1493 1492 1490 1489 1487 1485 1483 1481 1479 1477 1476 1474 1472 1470 1469 1468 1467 1466 1466 1466 1466 1466 1466 1466 1466 1466 1467 1468 1469 1470 1471 1472 1473 1474 1475 1477 1479 1481 1483 1486 1490 1493 1496 1498 1499 1500 1501 1503 1505 1508 1510 1512 1513 1513 1513 1513 1513 1513 1514 1514 1515 1515 1515 1514 1513 1512 1511 1510 1509 1509 1508
1515 1513 1511 1509 1508 1507 1505 1504 1502 1500 1498 1497 1495 1494 1493 1491 1490 1488 1486 1485 1483 1481 1479 1477 1476 1474 1472 1470 1468 1466 1466 1466 1465 1465 1465 1465 1466 1465 1465 1465 1466 1467 1468 1469 1470 1471 1473 1474 1475 1476 1478 1480 1483 1486 1490 1493 1496 1497 1499 1500 1501 1503 1505 1507 1509 1511 1512 1512 1512 1511 1511 1512 1513 1514 1514 1514 1514 1513 1512 1511 1510 1510 1509 1508 1508
1513 1512 1510 1508 1507 1506 1504 1503 1501 1500 1498 1496 1495 1493 1492 1491 1490 1488 1487 1485 1483 1481 1479 1478 1476 1474 1473 1471 1469 1467 1467 1466 1465 1465 1465 1466 1466 1466 1465 1466 1467 1467 1468 1469 1470 1471 1472 1474 1475 1476 1479 1481 1484 1487 1490 1493 1495 1496 1498 1499 1501 1502 1504 1506 1508 1509 1510 1510 1510 1510 1510 1511 1512 1513 1513 1513 1513 1512 1512 1511 1510 1509 1509 1508 1508
1512 1511 1509 1507 1506 1504 1503 1502 1501 1499 1497 1496 1494 1493 1492 1491 1490 1488 1487 1485 1483 1481 1480 1478 1477 1476 1474 1473 1471 1470 1468 1467 1467 1467 1467 1467 1467 1467 1467 1467 1468 1469 1470 1470 1472 1473 1474 1475 1477 1479 1481 1484 1485 1487 1489 1492 1494 1496 1497 1498 1500 1502 1504 1506 1507 1508 1509 1509 1509 1510 1510 1511 1512 1512 1512 1512 1512 1511 1511 1510 1510 1509 1509 1509 1509
1512 1509 1507 1506 1505 1503 1502 1501 1500 1499 1497 1496 1494 1494 1493 1491 1490 1488 1487 1485 1484 1482 1481 1479 1478 1477 1475 1474 1472 1471 1470 1469 1469 1469 1469 1469 1469 1469 1469 1469 1470 1471 1472 1472 1473 1474 1475 1476 1478 1480 1482 1484 1486 1487 1490 1492 1494 1496 1497 1498 1500 1502 1504 1505 1506 1507 1508 1508 1509 1509 1510 1511 1511 1512 1512 1511 1511 1510 1510 1509 1509 1510 1510 1510 1509
1511 1509 1507 1505 1504 1502 1501 1500 1499 1498 1497 1496 1495 1494 1493 1491 1490 1489 1487 1486 1484 1483 1481 1480 1479 1478 1476 1475 1473 1472 1471 1470 1470 1470 1471 1471 1471 1471 1471 1472 1472 1473 1474 1474 1475 1476 1477 1478 1480 1481 1483 1485 1486 1488 1490 1493 1495 1497 1498 1499 1501 1502 1503 1505 1506 1507 1507 1508 1509 1509 1509 1510 1510 1511 1510 1510 1510 1510 1509 1509 1510 1510 1510 1510 1510
1510 1508 1506 1505 1503 1502 1501 1499 1498 1497 1497 1496 1495 1494 1493 1492 1490 1489 1488 1486 1485 1483 1482 1481 1480 1479 1478 1476 1475 1473 1472 1472 1472 1472 1472 1472 1472 1472 1473 1473 1474 1474 1475 1476 1477 1478 1479 1480 1481 1483 1485 1487 1488 1489 1491 1493 1496 1498 1499 1500 1501 1502 1504 1505 1505 1506 1507 1507 1508 1508 1509 1509 1509 1509 1509 1509 1509 1509 1510 1510 1510 1511 1510 1510 1510
1509 1507 1506 1504 1503 1501 1500 1499 1497 1496 1496 1495 1495 1494 1493 1492 1491 1490 1489 1487 1485 1483 1482 1482 1481 1480 1479 1478 1477 1475 1474 1474 1474 1473 1474 1474 1474 1474 1474 1474 1475 1475 1476 1477 1478 1479 1480 1482 1483 1484 1486 1488 1490 1491 1493 1494 1496 1498 1500 1501 1502 1502 1503 1504 1505 1505 1506 1507 1507 1508 1508 1508 1508 1508 1509 1509 1509 1510 1510 1510 1511 1511 1510 1510 1509
1509 1507 1505 1504 1502 1501 1499 1498 1496 1495 1495 1495 1494 1494 1493 1493 1492 1490 1489 1488 1486 1484 1483 1483 1483 1482 1481 1480 1479 1478 1477 1476 1476 1476 1476 1476 1475 1475 1475 1475 1476 1477 1478 1479 1480 1481 1482 1484 1485 1487 1488 1490 1491 1492 1494 1495 1497 1498 1500 1501 1502 1502 1503 1504 1504 1505 1505 1506 1506 1507 1507 1507 1508 1508 1508 1509 1510 1510 1511 1511 1511 1511 1511 1510 1509
1508 1507 1505 1504 1502 1501 1499 1497 1495 1495 1494 1495 1494 1494 1494 1493 1492 1491 1490 1488 1486 1485 1485 1485 1484 1484 1483 1482 1481 1481 1480 1480 1479 1479 1478 1478 1477 1477 1477 1477 1477 1478 1479 1481 1482 1484 1485 1487 1488 1489 1490 1492 1493 1494 1495 1497 1498 1499 1500 1501 1502 1502 1503 1503 1504 1504 1505 1506 1506 1507 1507 1507 1507 1508 1509 1509 1510 1511 1511 1511 1511 1511 1510 1509 1508
1508 1507 1506 1504 1503 1501 1499 1497 1496 1495 1495 1495 1495 1495 1494 1493 1492 1491 1490 1489 1488 1487 1487 1487 1486 1486 1485 1485 1484 1484 1483 1483 1482 1482 1482 1481 1481 1481 1481 1481 1481 1482 1483 1484 1485 1487 1488 1489 1491 1492 1493 1494 1496 1497 1497 1498 1499 1499 1500 1501 1502 1502 1502 1503 1503 1504 1505 1506 1507 1507 1507 1507 1508 1508 1509 1510 1511 1511 1511 1511 1510 1510 1510 1509 1508
1508 1507 1506 1504 1503 1501 1500 1498 1496 1495 1495 1495 1495 1495 1494 1494 1493 1492 1491 1490 1489 1489 1488 1488 1488 1488 1488 1487 1487 1487 1486 1486 1486 1485 1485 1485 1485 1485 1485 1486 1486 1487 1487 1488 1489 1490 1491 1492 1493 1494 1495 1496 1497 1498 1499 1499 1499 1500 1500 1501 1502 1502 1503 1503 1504 1505 1506 1507 1508 1508 1508 1508 1508 1509 1509 1510 1511 1511 1511 1510 1510 1510 1510 1509 1508
1507 1507 1505 1504 1503 1502 1501 1499 1497 1496 1496 1496 1496 1495 1495 1494 1493 1492 1492 1491 1491 1491 1490 1490 1490 1490 1490 1490 1490 1489 1489 1489 1488 1488 1488 1488 1488 1488 1488 1489 1489 1489 1490 1490 1491 1492 1493 1493 1494 1495 1496 1497 1498 1499 1499 1500 1500 1500 1501 1501 1502 1503 1503 1504 1505 1506 1507 1508 1508 1508 1509 1509 1509 1509 1510 1510 1511 1511 1510 1510 1509 1509 1510 1509 1508